Airfield :
LOGIN :

Register | Disclaimer

   EN    FR    IT 

 










Legend :    VFR   Marginal VFR   IFR   Intensive IFR   Very Intensive IFR
Visi :
Ceiling :
>= 8 km
>= 3000ft
5 to 8 km
1000 to 3000 ft
1500m to 5 km
500 to 1000 ft
800 to 1500m
200 to 500 ft
< 800m
< 200 ft
Symbols :   Thunderstorms  Fog  Heavy snow  Heavy precipitations  Wind > 20 kt
SIGMETs :     Misc.  Thunderstorms  Icing  Turbulence  Mountain Waves  Volcanic Ashes







- Airport Elevation : 2697 ft
- IATA code : BLJ


DABT - Batna

CURRENT METAR :
  • 262300Z 31006KT 9999 SCT020 26/10 Q1019

EXPIRED METARs :
  • 262200Z 34022KT 9999 SCT023 28/10 Q1019
  • 262100Z 11007KT 9999 SCT023 29/09 Q1017

TAF TAF DABT
Valid from the 27 at 00:00 until the 28 at 00:00 UTC


262300Z 2700/2724 27010KT 9999 SCT020
TEMPO 2700/2703 RA FEW030TCU
PROB30
TEMPO 2710/2718 5000 -TSRA FEW023CB BKN030
BECMG 2713/2715 20010KT
No reported NOTAMs for that airfield.



MET'MAP, your aeronautical weather chart ! - Copyright ORBIFLY December 2007 - Disclaimer

ORBIFLY MET'MAP TEAM :

Programming & Development : Alexandra Zaïnal
Concept & Development : Baudouin d'Aumeries
Co-Development & Prog : Marc-Olivier Méhu
Technical & hardware support : Manuel Goepfert

Contact : metmap@orbifly.com




SOURCES & CREDITS :

   NOAA